This is the latest recevied weather packets stored in our database for station/object SP3PDK-1. If no packets are shown the sender has not sent any weather packets the latest 10 day(s).
| Time | Temp. | Humidity | Pressure | Rain* | Wind** | Luminosity | Snow |
|---|---|---|---|---|---|---|---|
| 1777583059 | 16.11° C | 43% | 1027.6 hPa | - | - | - | - |
| 1777582458 | 15.56° C | 43% | 1027.6 hPa | - | - | - | - |
| 1777581254 | 16.67° C | 42% | 1027.6 hPa | - | - | - | - |
| 1777580654 | 16.67° C | 42% | 1027.7 hPa | - | - | - | - |
| 1777580054 | 16.11° C | 42% | 1027.9 hPa | - | - | - | - |
| 1777579454 | 16.11° C | 42% | 1027.8 hPa | - | - | - | - |
| 1777578854 | 16.11° C | 42% | 1027.9 hPa | - | - | - | - |
| 1777578259 | 16.11° C | 42% | 1027.8 hPa | - | - | - | - |
| 1777577654 | 16.11° C | 42% | 1027.7 hPa | - | - | - | - |
| 1777577058 | 16.11° C | 41% | 1027.7 hPa | - | - | - | - |
| 1777576455 | 16.67° C | 40% | 1027.8 hPa | - | - | - | - |
| 1777575854 | 16.11° C | 41% | 1027.6 hPa | - | - | - | - |
| 1777574654 | 16.67° C | 41% | 1027.7 hPa | - | - | - | - |
| 1777574054 | 16.11° C | 41% | 1027.6 hPa | - | - | - | - |
| 1777573454 | 16.67° C | 40% | 1027.6 hPa | - | - | - | - |
| 1777572854 | 16.67° C | 39% | 1027.5 hPa | - | - | - | - |
| 1777572253 | 16.67° C | 40% | 1027.5 hPa | - | - | - | - |
| 1777571655 | 16.67° C | 39% | 1027.5 hPa | - | - | - | - |
| 1777570454 | 16.67° C | 38% | 1027.5 hPa | - | - | - | - |
| 1777568657 | 17.22° C | 37% | 1027.7 hPa | - | - | - | - |
| 1777568055 | 17.22° C | 37% | 1027.8 hPa | - | - | - | - |
| 1777567454 | 17.78° C | 35% | 1027.6 hPa | - | - | - | - |
| 1777566854 | 18.33° C | 35% | 1027.6 hPa | - | - | - | - |
| 1777566258 | 17.78° C | 36% | 1027.6 hPa | - | - | - | - |
| 1777565054 | 17.78° C | 35% | 1027.7 hPa | - | - | - | - |
* Rain since midnight (hover to see other rain measurements)
** Current wind speed in m/s (hover to see current wind gust speed)